Powrót do katalogu

FENGYUN 1C DEB

AktywnySSO
NORAD 31757·DEBRIS·🇨🇳 China

Wystrzelony May 10, 1999 z Taiyuan Satellite Launch Center

Loading…

Następne Przeloty (najbliższe 24 godziny)

TLE

ŚwieżeSource: Space-Track

Epoka: Sep 14, 2026, 06:40 UTC

1 31757U 99025CFG 26257.27797218  .00000335  00000-0  17880-3 0  9991
2 31757  98.7514 276.4284 0216530  26.6651 334.5463 14.08150794677596

Śledź FENGYUN 1C DEB w czasie rzeczywistym z AllMySat

Download on the App Store